Showing default

LEMUR 2 SQUIRRELCOMM, 60578

Orbit data source: Space-Track

LEMUR 2 SQUIRRELCOMM, 60578 is an American payload satellite in SSO that was launched on Fri, 16 Aug 2024 UTC via an FALCON 9 launch vehicle from the Air Force Western Test Range (AFWTR). Payload-class satellites include a variety of spacecraft equipped with specific instruments for various scientific and technological missions. These include communications satellites like Starlink; space stations such as the ISS; scientific satellites like the Hubble; Earth observation satellites from companies like Planet Labs, Umbra, and HawkEye 360; GPS; miniature CubeSats for education and research; and military/defense satellites.

Loading next visibility...
Identifier
60578, 2024-149DQ
Orbit
SSO
Country
Flag of USUS
Related business
Manufacturer
Spire/Glasgow
Mission
Operational Commercial Com/MetRO
Bus & Motor
CUBESAT 3U, Unknown motor
Mass
7.6 kg wet, 7.6 kg dry
Launch date (UTC)
2024-08-16 (2 years ago)
Launch vehicle
FALCON 9
Launch site
Air Force Western Test Range (AFWTR)
Object type
Payload
Rocket body
Debris
Shape & HBR
Box + 2 Pan, 0.5 m
Radar Cross Section
0.063 m², Medium (>0.1 m² and < 1m²)

Expand to show TLE details & history
Last TLE update: 15 hours ago

TLE from 15 hours ago
0 LEMUR 2 SQUIRRELCOMM
1 60578U 24149DQ  26198.46042154  .00002465  00000-0  16679-3 0  9997
2 60578  97.6703 279.2816 0004033 316.9896  43.1016 15.07457788104964
Epoch: 2026-07-17T11:03Z
TLE epoch observation values (Epoch: 2026-07-17T11:03:00.421Z)
Latitude
0.00002°
Longitude
178.24264°
Altitude
544.999 km
Speed
7.591 km/s
True Right ascension
18h 37m 07s
True Declination
0° 00' 00"
Sunlit
Object was in full shadow at epoch
Visualization orbit readout
Latitude
Unknown
Longitude
Unknown
Altitude
Unknown
Speed
Unknown
Apparent Right ascension
Unknown
Apparent Declination
Unknown
Sunlit
N/A
Visualization observer readout
Local Sidereal Time
15:06:17
Azimuth
Unknown
Elevation
Unknown
Doppler factor
Unknown
Orbital elements
Apogee altitude
543.756 km
Perigee altitude
538.175 km
Semi-major axis
6,919.103 km
Eccentricity
0.0004
Inclination
97.6703°
RAAN
279.2816°
Arg. of periapsis
316.9896°
True anomaly
43.13319°
Mean anomaly
43.1016°
Eccentric anomaly
43.11739°
Mean motion
3.7711 °/min
Orbital period
95.46 mins
BSTAR
0.00016679
Loading maneuver chart data...
Computing Atmospheric mass density...
Loading historical data...
Loading historical data...
Loading historical data...
Loading historical data...
Loading historical data...
Loading historical data...
Loading historical data...

Documentation

Showing up to 5 results
|